FW1140 Weather Reports


time (UTC)temp
F
wind
direction
speed
knots
gust
knots
rain 1hr
in
rain 24hr
in
rain mn
in
humidity
%
barometer
mb
20260904161605 70 14 1.7 5.2 0.00 0.00 0.00 88 1008.5
20260904160021 69 340 1.7 4.3 0.00 0.00 0.00 91 1008.5
20260904154527 68 325 0.9 5.2 0.00 0.00 0.00 92 1008.3
20260904153057 68 312 1.7 5.2 0.00 0.00 0.00 93 1008.2
20260904151551 67 326 1.7 5.2 0.00 0.00 0.00 94 1008.2
20260904150011 67 360 1.7 5.2 0.00 0.00 0.00 94 1008.0
20260904144512 66 355 1.7 4.3 0.00 0.00 0.00 94 1008.0
20260904143038 66 323 0.9 4.3 0.00 0.00 0.00 94 1007.9
20260904141553 66 299 0.9 4.3 0.00 0.00 0.00 94 1007.8
20260904140113 66 334 0.9 4.3 0.00 0.00 0.00 94 1007.5
20260904134601 66 359 1.7 6.1 0.00 0.00 0.00 94 1007.5
20260904133018 65 340 2.6 5.2 0.00 0.00 0.00 94 1007.5
20260904131530 65 326 2.6 6.1 0.00 0.00 0.00 94 1007.3
20260904130046 65 302 1.7 5.2 0.00 0.00 0.00 94 1007.1
20260904124541 65 337 2.6 5.2 0.00 0.00 0.00 94 1006.8
20260904123023 65 310 0.9 4.3 0.00 0.00 0.00 94 1006.6
20260904121538 64 338 1.7 6.1 0.00 0.00 0.00 94 1006.4
20260904114517 65 252 2.6 6.1 0.00 0.00 0.00 93 1006.1
20260904113100 65 285 1.7 5.2 0.00 0.00 0.00 93 1006.1
20260904111554 65 255 1.7 5.2 0.00 0.00 0.00 93 1006.0
20260904110036 65 294 0.9 4.3 0.00 0.00 0.00 92 1005.9
20260904104559 65 289 1.7 6.1 0.00 0.00 0.00 92 1005.9
20260904103015 65 291 1.7 6.1 0.00 0.00 0.00 91 1005.7
20260904101508 66 304 3.5 7.0 0.00 0.00 0.00 91 1005.6
20260904100058 66 285 2.6 7.0 0.00 0.00 0.00 91 1005.6
20260904094556 66 315 1.7 6.1 0.00 0.00 0.00 91 1005.5
20260904093049 66 301 2.6 7.0 0.00 0.00 0.00 90 1005.4
20260904091506 66 308 3.5 9.6 0.00 0.00 0.00 90 1005.2
20260904090037 67 305 4.3 7.8 0.00 0.00 0.00 90 1005.3
20260904084606 67 304 3.5 7.8 0.00 0.00 0.00 89 1005.3
20260904083011 67 304 3.5 8.7 0.00 0.00 0.00 88 1005.0
20260904081524 68 304 1.7 5.2 0.00 0.00 0.00 88 1004.9
20260904080027 69 300 1.7 4.3 0.00 0.00 0.00 87 1004.9
20260904074539 70 318 0.9 5.2 0.00 0.00 0.00 84 1004.7
20260904073056 73 317 1.7 7.8 0.00 0.00 0.00 81 1004.6
20260904071526 73 8 1.7 6.1 0.00 0.00 0.00 82 1004.1
20260904070056 74 213 3.5 7.8 0.00 0.00 0.00 81 1003.8
20260904064511 74 248 3.5 10.4 0.00 0.00 0.00 79 1003.6
20260904063102 75 217 4.3 10.4 0.00 0.00 0.00 78 1003.5
20260904061550 76 238 3.5 11.3 0.00 0.00 0.00 76 1003.3
20260904060051 77 263 5.2 10.4 0.00 0.00 0.00 75 1003.3
20260904054529 77 220 4.3 9.6 0.00 0.00 0.00 74 1003.1
20260904053101 78 243 6.1 12.2 0.00 0.00 0.00 73 1003.1
20260904051556 78 231 6.1 12.2 0.00 0.00 0.00 72 1002.9
20260904050053 78 212 3.5 7.8 0.00 0.00 0.00 72 1003.0
20260904044521 79 176 5.2 9.6 0.00 0.00 0.00 71 1002.9
20260904043020 78 229 3.5 7.0 0.00 0.00 0.00 72 1002.9
20260904041554 79 224 4.3 9.6 0.00 0.00 0.00 71 1002.9
20260904040014 79 192 4.3 8.7 0.00 0.00 0.00 70 1002.8
20260904034546 80 179 4.3 10.4 0.00 0.00 0.00 69 1002.7
20260904033010 80 208 4.3 9.6 0.00 0.00 0.00 70 1002.7
20260904031530 80 176 4.3 9.6 0.00 0.00 0.00 69 1002.6
20260904030115 79 134 4.3 9.6 0.00 0.00 0.00 70 1002.5
20260904024558 78 193 3.5 8.7 0.00 0.00 0.00 71 1002.5
20260904023030 78 243 3.5 7.8 0.00 0.00 0.00 71 1002.4
20260904021523 77 158 2.6 6.1 0.00 0.00 0.00 73 1002.1
20260904020049 77 205 3.5 7.0 0.00 0.00 0.00 73 1002.1
20260904014505 77 224 3.5 6.1 0.00 0.00 0.00 72 1001.8
20260904013049 77 178 2.6 6.1 0.00 0.00 0.00 71 1001.6
20260904011551 78 190 2.6 5.2 0.00 0.00 0.00 68 1001.6
20260904010026 80 205 3.5 6.1 0.00 0.00 0.00 64 1001.5
20260904004523 82 221 3.5 8.7 0.00 0.00 0.00 61 1001.4
20260904003049 83 158 3.5 8.7 0.00 0.00 0.00 59 1001.3
20260904001510 85 234 4.3 8.7 0.00 0.00 0.00 58 1001.3
20260904000038 87 190 4.3 10.4 0.00 0.00 0.00 56 1001.2
20260903234538 88 201 1.7 5.2 0.00 0.00 0.00 59 1001.1
20260903233003 89 179 2.6 6.1 0.00 0.00 0.00 55 1000.9
20260903231515 90 176 3.5 7.0 0.00 0.00 0.00 55 1000.8
20260903230028 91 209 4.3 9.6 0.00 0.00 0.00 54 1000.7
20260903224528 91 226 4.3 7.8 0.00 0.00 0.00 56 1000.7
20260903223057 92 225 4.3 9.6 0.00 0.00 0.00 55 1000.7
20260903221512 92 205 5.2 10.4 0.00 0.00 0.00 53 1000.5
20260903220015 93 193 4.3 8.7 0.00 0.00 0.00 53 1000.4
20260903214533 93 196 4.3 8.7 0.00 0.00 0.00 52 1000.4
20260903213033 94 165 3.5 8.7 0.00 0.00 0.00 51 1000.4
20260903211512 93 174 4.3 10.4 0.00 0.00 0.00 53 1000.3
20260903210021 93 170 5.2 11.3 0.00 0.00 0.00 52 1000.3
20260903204546 0 0.0 0.0 0.00 0.00 0.00 1000.3
20260903203011 93 165 6.1 10.4 0.00 0.00 0.00 54 1000.2
20260903201539 93 127 5.2 11.3 0.00 0.00 0.00 56 1000.5
20260903200035 92 146 6.1 11.3 0.00 0.00 0.00 54 1000.7
20260903194554 92 154 5.2 9.6 0.00 0.00 0.00 55 1000.8
20260903193043 92 153 5.2 7.8 0.00 0.00 0.00 55 1000.7
20260903191512 90 127 4.3 11.3 0.00 0.00 0.00 55 1000.6
20260903190017 90 140 5.2 9.6 0.00 0.00 0.00 57 1000.7
20260903184612 89 129 5.2 10.4 0.00 0.00 0.00 58 1000.9
20260903183043 88 118 4.3 7.0 0.00 0.00 0.00 59 1001.1
20260903181546 89 143 3.5 7.0 0.00 0.00 0.00 59 1001.2
20260903180006 88 122 4.3 7.0 0.00 0.00 0.00 61 1001.4
20260903174514 88 71 0.9 4.3 0.00 0.00 0.00 60 1001.5
20260903173057 85 138 2.6 5.2 0.00 0.00 0.00 65 1001.8
20260903171556 87 203 2.6 7.0 0.00 0.00 0.00 61 1002.3
20260903170013 87 146 1.7 4.3 0.00 0.00 0.00 62 1002.6
20260903164608 83 128 0.9 2.6 0.00 0.00 0.00 65 1002.6
20260903163103 83 123 3.5 5.2 0.00 0.00 0.00 67 1002.5